sat.trackr.live / text

‹ back to catalog

STARLINK-32939

NORAD 63149 · 2025-043T

PAYLOAD ACTIVE UNKNOWN

§ Identity

Operator
Country
US
Launch date
2025-03-03
Launch site
AFETR
Launch vehicle
Mass (kg)
RCS (m²)

Purposes: comms

External: N2YO · Heavens-Above · Gunter

§ Orbital elements

Epoch: 2026-05-24T20:36:05.528448Z

Period
94.27 min
Inclination
42.9970°
Eccentricity
0.0001748
Mean motion
15.27602500 rev/d
Perigee alt
481.8 km
Apogee alt
484.2 km
Semi-major
6,861.1 km
B*
5.4519e-4
RAAN
305.8798°
Arg perigee
271.6528°
Mean anomaly
88.4123°
Rev number
6,901

§ Raw data

STARLINK-329391 63149U 25043T   26144.85839732  .00014781  00000+0  54519-3 0  99962 63149  42.9970 305.8798 0001748 271.6528  88.4123 15.27602500 69017

JSON: /api/v1/satellites/63149 · /tle

For live sub-satellite position, see the globe view (requires WebGL).

§ Visibility from observer

Set your observer location to see the next 7 days of passes ≥ 10°. The values pass through the URL so the page stays shareable.

No JS? Fill the form by hand. The geolocation button needs JavaScript.